Content
SEND FEEDBACK

Daily
Averages
Monthly
Summary
United States of America

LINCOLN, ILLINOIS


Home > North America > United States > Illinois
Elevation: 555 feet     Latitude: 40 09N     Longitude: 089 24W

WEATHER
 
SELECT A DAY
Number of Records: 323,566;   Date Range: 9/6/01 - 7/29/14
 
SHARE

PRINT THIS DATA

[ ← Previous Day ]
WEATHER ALMANAC - JANUARY 21, 2013
[ Next Day → ]
[ °C ]   °F
Weather ElementAverageHighLow
Temperature13.2 °F19.4 °F (12:35 am)7.3 °F (11:55 pm)
Dewpoint1 °F13.5 °F (12:35 am)-4.5 °F (1:55 pm)
Humidity59.2 %78 % (12:35 am)40 % (1:55 pm)
Barometer30.30 in30.37 in (10:35 pm)30.24 in (4:15 am)
Wind Speed9 mph16.1 mph (10:35 am)
Wind Gust25.3 mph (10:15 am)
Weather ElementAverage
Visibility10 mi
Wind DirectionWNW (293.7 °)

Weather ElementTotal
Precipitation---
Heating Degree Days51.7 (Base 65)
Averaged from 71 records on January 21, 2013
WEATHER CONDITIONS BREAKOUT
WIND DIRECTION BREAKOUT
WEATHER BY HOUR - JANUARY 21, 2013
[ °C ]   °F
Local TimeTemperatureDewpointHumidityBarometerVisibilityWind DirectionWind SpeedGust SpeedPrecipitationEventsConditions
12:35 AM19.4 °F13.5 °F78 %30.25 in10.0 miWNW (290°)5.8 mphOvercast
12:55 AM19.0 °F13.1 °F78 %30.25 in10.0 miWest (280°)9.2 mphSnowLight Snow
1:15 AM18.5 °F12.0 °F76 %30.26 in10.0 miWNW (300°)6.9 mphOvercast
1:35 AM18.1 °F11.3 °F75 %30.26 in10.0 miWNW (290°)4.6 mphOvercast
1:55 AM18.1 °F11.3 °F75 %30.26 in10.0 miWest (280°)9.2 mph16.1 mphOvercast
2:15 AM17.6 °F10.8 °F75 %30.26 in10.0 miWest (280°)8.1 mphSnowLight Snow
2:35 AM17.4 °F10.4 °F74 %30.26 in10.0 miWest (280°)11.5 mph17.3 mphSnowLight Snow
2:55 AM16.7 °F9.3 °F73 %30.26 in10.0 miWNW (300°)10.4 mph19.6 mphOvercast
3:15 AM16.3 °F9.1 °F73 %30.26 in10.0 miWNW (290°)8.1 mph16.1 mphOvercast
3:35 AM15.8 °F9.1 °F75 %30.25 in10.0 miWest (280°)9.2 mph17.3 mphSnowLight Snow
3:55 AM14.9 °F7.7 °F73 %30.25 in10.0 miWNW (290°)9.2 mph19.6 mphScattered Clouds
4:15 AM14.9 °F7.7 °F73 %30.24 in10.0 miWNW (290°)13.8 mph21.9 mphMostly Cloudy
4:35 AM14.9 °F7.2 °F71 %30.25 in10.0 miWNW (300°)10.4 mph18.4 mphMostly Cloudy
4:55 AM14.4 °F7.5 °F74 %30.25 in10.0 miWNW (290°)6.9 mph16.1 mphClear
5:15 AM14.0 °F5.9 °F70 %30.25 in10.0 miWest (280°)10.4 mph17.3 mphScattered Clouds
5:35 AM14.0 °F5.7 °F70 %30.25 in10.0 miWNW (290°)8.1 mph23.0 mphMostly Cloudy
5:55 AM13.8 °F4.5 °F66 %30.25 in10.0 miWNW (290°)11.5 mph20.7 mphScattered Clouds
6:15 AM13.8 °F4.6 °F67 %30.25 in10.0 miWNW (290°)8.1 mphClear
6:35 AM13.8 °F4.5 °F66 %30.26 in10.0 miWest (270°)9.2 mph16.1 mphScattered Clouds
6:55 AM13.1 °F3.7 °F66 %30.26 in10.0 miWNW (290°)8.1 mph19.6 mphScattered Clouds
7:15 AM12.7 °F2.7 °F64 %30.26 in10.0 miWNW (290°)11.5 mph20.7 mphClear
7:35 AM12.2 °F2.1 °F64 %30.26 in10.0 miWNW (290°)9.2 mph18.4 mphClear
7:55 AM12.2 °F1.9 °F64 %30.27 in10.0 miWNW (290°)8.1 mph19.6 mphClear
8:15 AM11.8 °F1.8 °F64 %30.28 in10.0 miWNW (290°)11.5 mph18.4 mphMostly Cloudy
8:35 AM12.0 °F1.4 °F62 %30.28 in10.0 miWNW (300°)6.9 mph19.6 mphMostly Cloudy
8:55 AM12.9 °F0.9 °F59 %30.29 in10.0 miWNW (290°)15.0 mph23.0 mphMostly Cloudy
9:15 AM12.7 °F0.3 °F58 %30.30 in10.0 miWest (280°)10.4 mph16.1 mphMostly Cloudy
9:35 AM12.4 °F-0.4 °F57 %30.30 in10.0 miWNW (290°)15.0 mph21.9 mphScattered Clouds
9:55 AM13.1 °F0.1 °F56 %30.30 in10.0 miWNW (300°)9.2 mph23.0 mphMostly Cloudy
10:15 AM12.6 °F-0.2 °F57 %30.31 in10.0 miNW (320°)13.8 mph25.3 mphMostly Cloudy
10:35 AM13.1 °F-1.3 °F53 %30.31 in10.0 miNW (310°)16.1 mph24.2 mphMostly Cloudy
10:55 AM13.3 °F-2.0 °F51 %30.31 in10.0 miNW (310°)15.0 mph20.7 mphScattered Clouds
11:15 AM14.0 °F0.0 °F54 %30.31 in10.0 miNW (310°)12.7 mph24.2 mphScattered Clouds
11:35 AM14.2 °F-2.9 °F47 %30.31 in10.0 miWNW (290°)10.4 mph25.3 mphScattered Clouds
11:55 AM14.2 °F-3.5 °F46 %30.31 in10.0 miWest (280°)9.2 mph24.2 mphScattered Clouds
12:15 PM14.7 °F-2.9 °F46 %30.30 in10.0 miWNW (300°)10.4 mph20.7 mphScattered Clouds
12:35 PM15.4 °F-2.4 °F45 %30.30 in10.0 miWNW (300°)11.5 mph21.9 mphScattered Clouds
12:55 PM15.6 °F-3.5 °F43 %30.30 in10.0 miWNW (300°)9.2 mph19.6 mphClear
1:15 PM16.0 °F-2.9 °F43 %30.29 in10.0 miNW (310°)10.4 mph23.0 mphClear
1:35 PM15.8 °F-4.0 °F41 %30.29 in10.0 miNW (310°)11.5 mph24.2 mphClear
1:55 PM15.8 °F-4.5 °F40 %30.29 in10.0 miWNW (300°)12.7 mph20.7 mphClear
2:15 PM15.8 °F-4.0 °F41 %30.30 in10.0 miWNW (300°)11.5 mph20.7 mphClear
2:35 PM15.8 °F-3.5 °F43 %30.30 in10.0 miWNW (300°)11.5 mph23.0 mphClear
2:55 PM16.2 °F-3.8 °F41 %30.31 in10.0 miWNW (290°)11.5 mph19.6 mphClear
3:15 PM16.0 °F-4.2 °F41 %30.31 in10.0 miWest (280°)11.5 mph17.3 mphClear
3:35 PM15.1 °F-4.2 °F42 %30.31 in10.0 miWNW (300°)10.4 mph18.4 mphClear
3:55 PM15.1 °F-4.2 °F42 %30.31 in10.0 miWNW (300°)9.2 mph17.3 mphClear
4:15 PM14.0 °F-4.0 °F45 %30.31 in10.0 miWNW (300°)6.9 mphClear
4:35 PM13.1 °F-3.8 °F47 %30.31 in10.0 miWNW (290°)5.8 mphClear
4:55 PM12.2 °F-4.0 °F48 %30.31 in10.0 miWNW (290°)5.8 mphClear
5:15 PM12.2 °F-3.5 °F50 %30.31 in10.0 miWNW (290°)5.8 mphClear
5:35 PM11.8 °F-2.6 °F53 %30.31 in10.0 miWest (280°)6.9 mphClear
5:55 PM11.3 °F-2.4 °F54 %30.32 in10.0 miWNW (290°)6.9 mphClear
6:15 PM11.3 °F-2.7 °F53 %30.32 in10.0 miWNW (290°)8.1 mph16.1 mphClear
6:35 PM12.2 °F-2.2 °F53 %30.32 in10.0 miWNW (300°)8.1 mphClear
6:55 PM11.1 °F-2.6 °F54 %30.33 in10.0 miWest (280°)6.9 mphClear
7:15 PM11.3 °F-2.2 °F55 %30.33 in10.0 miWNW (290°)5.8 mphClear
7:35 PM11.1 °F-2.2 °F55 %30.33 in10.0 miWNW (290°)4.6 mphClear
7:55 PM10.4 °F-1.8 °F58 %30.34 in10.0 miWNW (300°)9.2 mphClear
8:15 PM9.9 °F-2.0 °F59 %30.35 in10.0 miWNW (300°)8.1 mphClear
8:35 PM9.3 °F-2.0 °F60 %30.35 in10.0 miWNW (300°)8.1 mphClear
8:55 PM9.0 °F-2.0 °F61 %30.36 in10.0 miWNW (300°)5.8 mphClear
9:15 PM8.6 °F-2.4 °F61 %30.36 in10.0 miWNW (300°)8.1 mphClear
9:35 PM8.4 °F-2.4 °F62 %30.36 in10.0 miNW (310°)5.8 mphClear
9:55 PM8.1 °F-2.2 °F63 %30.36 in10.0 miWNW (300°)4.6 mphClear
10:15 PM8.1 °F-2.2 °F63 %30.36 in10.0 miWNW (290°)5.8 mphClear
10:35 PM7.9 °F-1.8 °F65 %30.37 in10.0 miWNW (290°)6.9 mphClear
10:55 PM7.7 °F-1.3 °F67 %30.37 in10.0 miWNW (300°)6.9 mphClear
11:15 PM7.7 °F-1.3 °F67 %30.37 in10.0 miWNW (290°)3.5 mphClear
11:35 PM7.5 °F-0.8 °F69 %30.36 in10.0 miWNW (300°)5.8 mphClear
11:55 PM7.3 °F-0.6 °F70 %30.36 in10.0 miWNW (300°)4.6 mphClear
Hourly data recorded from KAAA, located miles away from Lincoln, Illinois







STORIES FROM OUR PARTNERS